THOR ABLESTAR DEB, 1521

Orbit data source: Space-Track

THOR ABLESTAR DEB, 1521 is space debris in LEO originally from a launch on Fri, 13 Aug 1965 UTC launched from the Air Force Western Test Range (AFWTR). Debris objects in space refer to the collection of defunct objects orbiting the Earth. Examples of debris include non-operational satellites, rocket bodies, and fragments generated from explosions, collisions, or faulty payload assembly.

Loading next visibility...
Identifier
1521, 1965-065K
Orbit
LEO
Last TLE update
11 hours ago
Origin
Manufacturer
NRL
Mission
Spacecraft
Bus & Motor
Unknown
Mass
Unknown
Launch date (UTC)
1965-08-13 (60 years ago)
Launch vehicle
Unknown
Launch site
Air Force Western Test Range (AFWTR)
Object type
Payload
Rocket body
Debris
Shape & HBR
Unknown
Radar Cross Section
Small (<0.1 m²)

Expand to show TLE details & history

TLE from 11 hours ago
0 THOR ABLESTAR DEB
1 01521U 65065K   25128.74923551  .00000027  00000-0  38188-4 0  9996
2 01521  90.0017 209.8274 0068017 319.4226 160.0276 13.33260527905513
Epoch: 2025-05-08T17:58Z
Definitive object data (Epoch: 2025-05-08T17:58:53.948Z)
Latitude
60.37357°
Longitude
-106.70968°
Altitude
1,192.925 km
Speed
7.24 km/s
True Right ascension
01h 59m 19s
True Declination
60° 14' 03"
Sunlit
Object was in daylight at TLE epoch
Visualization TLE readout
Latitude
24.84251°
Longitude
-106.71179°
Altitude
1,186.365 km
Speed
7.239 km/s
Apparent Right ascension
01h 37m 25s
Apparent Declination
-4° 26' 48"
Sunlit
Object is in daylight
Visualization observer readout
Local Sidereal Time
13:06:42
Azimuth
346.941° N
Elevation
-53.858°
Doppler factor
1
Orbital elements
Apogee altitude
1,182.643 km
Perigee altitude
1,080.485 km
Semi-major axis
7,509.701 km
Eccentricity
0.0068017
Inclination
90.0017°
RAAN
209.8274°
Arg. of periapsis
319.4226°
True anomaly
160.29171°
Mean anomaly
160.0276°
Eccentric anomaly
160.15987°
Mean motion
3.3351 °/min
BSTAR
0.000038188
Orbital period
107.94 mins
Loading maneuver chart data...
Loading SW <> Apogee altitude chart data...
Loading historical data...
Loading historical data...
Loading historical data...
Loading historical data...
Loading historical data...
Loading historical data...
Loading historical data...

THOR ABLESTAR DEB Visibility forecast

Observer location: undefined°, undefined°

Span
Click to sort rows by Start time (UTC) header in descending order
Start Az.
Max El. time (UTC)
Max El. Az.
Max El.
End time (UTC)
End Az.
13 mins2025-05-09 06:05:06.547Z189.695° SSW2025-05-09 06:11:06.547Z263.629° W42.116°2025-05-09 06:18:06.547Z351.917° N
13 mins2025-05-09 17:24:06.547Z9.3° NNE2025-05-09 17:30:06.547Z93.988° ESE42.841°2025-05-09 17:37:06.547Z173.055° S
9 mins2025-05-09 19:13:06.547Z326.653° NNW2025-05-09 19:17:06.547Z288.09° WNW20.065°2025-05-09 19:22:06.547Z242.878° WSW
|